CamptonHillsWeather.com

Find the Weather for any City, State  
or Zipcode, or Country:

Campton Hills, IL Weather
Local Radar

Local Radar

Graphs, Details
Graphs and Gauges
Detailed Weather
Detailed Reports
Ajax Version (old)
Central Kane Co Summary
Davis Current Weather Graphs
Davis 24 Hour Weather History

CW3778 Data

Weather Underground
Maps
Temperature
Heat Index
Windchill
Humidity
Radar
Dew Point
Wind
Visibility
Visible Satellite
Satellite
Fronts
Snow Depth
Jet Stream
Flight Rules
Forecast Maps
Temperature Forecast
Maximum Temperature Forecast
Minimum Temperature Forecast
Dewpoint Forecast
Prevalent Weather
12Hr Probability of Precip.
Sky Cover
Health Maps
UV Forecast
Air Quality
Peak Air Quality Index
Weather Station
Davis Instruments Vantage Pro
Current Conditions [Select Refresh to Update]

Updated: 8:29am on 1/22/17

(location)
Currently:
32.0F

Clear
Overcast

High: 41.0 F< 
(12:05am
Low: 31.0 F 
(6:36am)
Wind: N 0 mph
Calm
Gust: 0 mph
Today's High Wind: 3 mph (2:28am)
Humidity: 98%
Pressure: 29.65 in  (Steady
Pressure Rate: 0.013 in/hr
Dew Point: 31.5F
Wind Chill: 32.0 F
Heat Index (feels like): 38.9 F
Comfort Level: Cool
Temperature Rate:  0.77F/hr
 
5 Day Forecast
 
Wed Thu Fri Sat Sun
Clear Clear Clear Clear Clear
Hazy Chance Rain Chance Rain Cloudy Chance Rain
41 45 45 53 50
29 36 38 41 39

Records and Normals
 
Temperature Forecast Normal Record
High 41 31 42
(2013)
Low 29 15 -5
(2016)
 
Links
 
 
Weather Advisories
Full Advisory Text...
Weather Map

Web Cam

Almanac
 
Sunrise:  
7:13am
Moonrise: 
2:33am

Moon Phase:
31%

Sunset: 
4:55pm
Moonset:  
12:57pm
 Star Chart...
Rainfall Totals
Hourly Rain 0.00 in
Daily Rain: 0.00 in
Monthly Rain: 1.78 in
Yearly Rain: 1.78 in
Normal Rain, month to date: 1.56 in
Normal Rain, year to date: 1.56 in
Link to Village of Campton Hills Map

Link to Counties of Illinois Map

Local Weather Exchange Network
Station ID City 
(Click for Map Location)
Neighborhood 
(Click for History)
Last Update (Date & Time) Temperature
 ()
Dew
Point ()
Humidity 
(%)
Wind 
(mph)
from the Wind Gust 
(mph) 
Pressure(in) Hourly
Rain(in)
KILCAMPT3 Campton Hills Campton Hills 01/18 06:53:55 32.5 32.0 100 0 West 7 30.15 0.00
KILSAINT10 Saint Charles Saint Charles Burr Road 01/18 07:35:46 31.7 31.0 98 0 WSW 0 30.17 0.00
KILMALLA2 Mallard Lake South St. Charles 01/18 07:35:41 34.2 32.0 90 2 SW 4 30.18 0.00
KILSTCHA1 St Charles CamptonHillsWeather.com Central Kane County 01/18 07:36:10 32.8 32.0 98 4 West 4 30.16 0.00
KILSAINT20 Saint Charles Knoll Creek Drive 01/18 07:31:24 35.1 33.0 91 0 North 0 30.15 0.00
KILHAPPY2 Happy Hills zdg0064 01/18 07:36:10 32.4 32.0 99 2 West 6 30.18 0.00
KILSOUTH10 South Elgin East Thornwood Drive 01/18 07:31:25 32.5 31.0 93 0 North 0 30.16 0.00
KILSTCHA15 St. Charles Harvest Hills 01/18 07:35:54 32.4 32.0 99 2 WNW 0 29.29 0.00
KILELBUR23 Elburn Elburn, IL 01/18 07:35:50 31.6 31.0 98 0 SSE 0 30.17 0.00
KILELBUR11 Elburn Cheval de Selle 01/18 07:36:01 31.6 31.0 98 4 West 0 29.13 0.00
KILELGIN28 Elgin Woodbridge South 01/18 07:36:00 31.7 31.0 98 5 West 0 30.17 0.00
KILSTCHA14 St. Charles St. Charles Country Club 01/18 07:36:14 32.9 30.0 87 0 WNW 0 30.17 0.00
KILYOUNG2 Youngsdale Elgin 01/18 07:32:07 33.6 32.0 95 0 North 0 30.16 0.00
KILMAPLE7 Maple Park ABRAHAMSON'S 01/18 07:35:01 31.3 31.0 99 0 WSW 0 30.13 0.00
KILSTCHA10 St. Charles Hunt Club 01/18 07:36:08 33.1 33.0 99 0 NNW 2 30.17 0.00
KILSAINT8 Saint Charles Near West Side Davis School Area 01/18 06:43:33 32.4 31.0 96 3 WNW 0 30.14 0.00
KILGENEV3 Geneva Mill Creek (Blackberry Way) 01/18 07:36:02 32.9 32.0 97 2 WSW 9 30.21 0.00
KILELBUR10 Elburn Prairie Valley North 01/18 07:35:59 31.3 31.0 97 4 West 5 30.15 0.00
KILSOUTH5 South Elgin Concord Park 01/18 07:35:51 32.2 32.0 99 4 SW 0 30.16 0.00
KILELGIN16 Elgin Providence Subdivision 01/18 07:35:39 31.7 30.0 96 0 NNW 0 30.17 0.00
KILSAINT9 Saint Charles Fox Chase 01/18 07:35:57 34.0 33.0 98 0 WSW 0 30.16 0.00
KILELBUR5 Elburn Prairie Highlands 01/18 07:35:16 33.0 32.0 98 1 West 5 30.16 0.00
KILGENEV6 Geneva Dover Ridge 01/18 07:36:04 32.6 32.0 96 14 WSW 14 30.14 0.00
KILGENEV10 Geneva Southampton Drive 01/18 07:30:30 32.4 32.0 100 1 West 3 30.18 0.00
KILELBUR17 Elburn Elburn 01/18 07:36:02 35.6 35.0 97 3 NW 5 30.20 0.00
KDPA Chicago DuPage Official Station 01/18 07:25:00 33.0 30.0 89 12 WSW --- 30.11 ---
KARR Aurora Official Station 01/18 06:52:00 34.0 32.0 92 13 West --- 30.15 ---
KDKB DeKalb Official Station 01/18 07:15:00 32.0 32.0 100 9 West --- 30.12 ---
KORD Chicago Official Station 01/18 07:29:00 34.0 33.0 96 9 West --- 30.12 ---
Full Advisory Text
No Warnings

Ambient Weather and Weather Underground
 Never base important decisions on this or any weather information obtained from the Internet
Updated Automatically by Ambient Weather's Virtual Weather Station  V13.01